SCP
0 0 0 0 0 0 0 0 0 0 0 0 0 0 0 0 0 0 0 0 0 1 1 1 1 1 1 1 1 1 0 0 0 0 0 0 0 0 0 0 0 0 0 0
0 0 0 0 0 0 0 0 0 0 0 0 0 0 0 0 0 0 0 0 0 1 1 1 1 1 1 1 1 1 1 0 0 0 0 0 0 0 0 0 0 0 0 0
0 0 0 0 0 0 0 0 0 0 0 0 0 0 0 0 0 0 0 0 0 0 1 1 1 1 1 1 1 1 1 1 0 0 0 0 0 0 0 0 0 0 0 0
0 0 0 0 0 0 0 0 0 0 0 0 0 0 0 0 0 0 0 0 0 0 0 1 1 1 1 1 1 1 1 1 1 0 0 0 0 0 0 0 0 0 0 0
0 0 0 0 0 0 0 0 0 0 0 0 0 0 0 0 0 0 0 0 0 0 0 1 1 1 1 1 0 1 1 1 1 1 1 1 0 0 0 0 0 0 0 0
0 0 0 0 0 0 0 0 0 0 0 0 0 0 0 0 0 0 0 0 0 0 0 0 1 1 1 0 0 0 1 1 1 1 1 1 1 1 1 1 1 1 1 1
0 0 0 0 0 0 0 0 0 0 0 0 0 0 0 0 0 0 0 0 0 0 0 0 0 0 0 0 0 0 0 1 1 1 1 1 2 2 2 1 1 1 2 1
0 0 0 0 0 0 0 0 0 0 0 0 0 0 0 0 0 0 0 0 0 0 0 0 0 0 0 0 0 0 0 0 1 1 1 1 1 2 2 2 2 2 2 2
0 0 0 0 0 0 0 0 0 0 0 0 0 0 0 0 0 0 0 0 0 0 0 0 0 0 0 0 0 0 0 0 0 1 1 1 1 1 2 2 2 2 1 1
0 0 0 0 0 0 0 0 0 0 0 0 0 0 0 0 0 0 0 0 0 0 0 0 0 0 0 0 0 0 0 0 0 0 0 0 0 1 1 1 1 1 1 0
0 0 0 0 0 0 0 0 0 0 0 0 0 0 0 0 0 0 0 0 0 0 0 0 0 0 0 0 0 0 0 0 0 0 0 0 0 0 0 1 1 0 0 0
0 0 0 0 0 0 0 0 0 0 0 0 0 0 0 0 0 0 0 0 0 0 0 0 0 0 0 0 0 0 0 0 0 0 0 0 0 0 0 0 0 0 0 0
0 0 0 0 0 0 0 0 0 0 0 0 0 0 0 0 0 0 0 0 0 0 0 0 0 0 0 0 0 0 0 0 0 0 0 0 0 0 0 0 0 0 0 0
0 0 0 0 0 0 0 0 0 0 0 0 0 0 0 0 0 0 0 0 0 0 0 0 0 0 0 0 0 0 0 0 0 0 0 0 0 0 0 0 0 0 0 0
0 0 0 0 0 0 0 0 0 0 0 0 0 0 0 0 0 0 0 0 0 0 0 0 0 0 0 0 0 0 0 0 0 0 0 0 0 0 0 0 0 0 0 0
0 0 0 0 0 0 0 0 0 0 0 0 0 0 0 0 0 0 0 0 0 0 0 0 0 0 0 0 0 0 0 0 0 0 0 0 0 0 0 0 0 0 0 0
0 0 0 0 0 0 0 0 0 0 0 0 0 0 0 0 0 0 0 0 0 0 0 0 0 0 0 0 0 0 0 0 0 0 0 0 0 0 0 0 0 0 0 0
0 0 0 0 0 0 0 0 0 0 0 0 0 0 0 0 0 0 0 0 0 0 0 0 0 0 0 0 0 0 0 0 0 0 0 0 0 0 0 0 0 0 0 0
0 0 0 0 0 0 0 0 0 0 0 0 0 0 0 0 0 0 0 0 0 0 0 0 0 0 0 0 0 0 0 0 0 0 0 0 0 0 0 0 0 0 0 0
0 0 0 0 0 0 0 0 0 0 0 0 0 0 0 0 0 0 0 0 0 0 0 0 0 0 0 0 0 0 0 0 0 0 0 0 0 0 0 0 0 0 0 0
0 0 0 0 0 0 0 0 0 0 0 0 0 0 0 0 0 0 0 0 0 0 0 0 0 0 0 0 0 0 0 0 0 0 0 0 0 0 0 0 0 0 0 0
0 0 0 0 0 0 0 0 0 0 0 0 0 0 0 0 0 0 0 0 0 0 0 0 0 0 0 0 0 0 0 0 0 0 0 0 0 0 0 0 0 0 0 0
0 0 0 0 0 0 0 0 0 0 0 0 0 0 0 0 0 0 0 0 0 0 0 0 0 0 0 0 0 0 0 0 0 0 0 0 0 0 0 0 0 0 0 0
0 0 0 0 0 0 0 0 0 0 0 0 0 0 0 0 0 0 0 0 0 0 0 0 0 0 0 0 0 0 0 0 0 0 0 0 0 0 0 0 0 0 0 0
0 0 0 0 0 0 0 0 0 0 0 0 0 0 0 0 0 0 0 0 0 0 0 0 0 0 0 0 0 0 0 0 0 0 0 0 0 0 0 0 0 0 0 0
0 0 0 0 0 0 0 0 0 0 0 0 0 0 0 0 0 0 0 0 0 0 0 0 0 0 0 0 0 0 0 0 0 0 0 0 0 0 0 0 0 0 0 0
Wind_Speed
3 4 4 3 3 3 1 1 1 1 1 1 2 4 4 4 3 4 3 2 2 2 2 2 2 2 2 2 2 2 2 1 1 1 1 0 0 1 1 1 2 3 3 3
3 5 4 3 3 3 2 2 1 1 2 0 2 5 4 5 5 4 3 3 2 2 2 2 2 2 2 2 1 1 1 1 1 1 0 1 1 0 0 1 1 1 2 2
6 3 3 3 4 3 2 1 1 1 2 3 2 4 4 3 4 3 3 2 2 2 2 2 2 2 2 2 1 1 1 1 0 1 1 1 1 1 1 2 1 2 2 2
5 5 4 3 4 4 2 2 1 2 2 1 1 2 2 4 4 5 4 3 2 2 1 2 2 2 1 1 1 1 1 0 1 1 0 1 0 0 1 1 1 2 2 2
3 4 5 4 4 4 1 2 2 2 2 2 2 2 4 3 4 5 5 4 3 2 2 2 2 2 1 1 1 1 1 1 0 1 0 0 1 1 1 1 1 1 1 2
2 1 3 3 3 2 2 2 2 2 1 3 3 2 3 3 3 2 3 4 4 2 2 2 2 2 1 1 1 1 1 1 1 1 0 0 1 2 2 2 2 2 2 2
1 2 1 2 2 1 2 1 0 1 1 2 2 2 5 1 2 2 2 3 3 2 2 2 2 2 2 1 1 1 1 1 1 1 1 1 1 1 2 2 2 2 2 2
1 1 1 2 2 2 1 2 1 1 2 1 1 3 3 2 2 2 2 3 2 2 2 2 2 2 2 1 1 1 1 1 1 1 1 1 1 1 1 2 1 2 2 2
1 0 1 2 2 3 1 0 1 1 0 2 3 3 1 2 2 1 1 2 1 1 2 1 1 1 2 1 1 1 1 1 1 1 1 1 1 1 2 2 2 1 2 2
1 0 1 0 1 1 2 1 0 1 1 3 3 3 3 3 3 3 2 2 1 1 1 1 1 1 2 1 1 1 1 1 1 1 0 1 1 1 2 2 2 2 3 3
2 1 1 1 1 1 1 1 1 1 1 2 3 4 1 3 4 3 2 2 1 1 1 2 1 1 1 1 1 1 1 1 1 0 0 1 1 1 1 1 2 2 2 3
1 0 1 1 1 2 1 2 2 2 2 2 2 6 1 2 3 2 2 1 2 2 2 2 2 2 2 1 1 1 0 0 0 0 0 1 1 1 1 1 2 2 2 3
1 1 0 1 1 1 2 2 2 1 0 2 3 7 0 2 1 2 2 2 2 2 2 1 1 2 2 1 1 1 0 0 0 0 1 1 1 1 1 1 2 2 2 2
1 1 3 3 1 1 3 4 4 4 3 4 8 9 6 4 3 3 3 3 3 3 2 2 1 2 2 2 2 1 1 0 0 0 0 1 1 1 1 1 1 2 2 2
1 2 3 5 4 3 5 5 7 9 8 8 7 8 12 7 4 4 3 3 4 3 3 3 3 2 2 2 2 1 1 1 0 0 1 1 1 1 1 1 2 2 2 3
1 1 1 4 2 3 6 9 9 10 9 11 11 14 12 8 5 4 4 3 4 4 4 4 3 3 3 3 2 2 2 1 1 1 2 1 1 1 1 2 2 2 3 3
2 2 1 3 2 4 8 10 12 8 9 8 13 13 7 5 5 5 4 4 5 5 4 4 4 4 4 3 3 3 2 1 1 2 2 1 1 2 2 2 2 3 3 3
4 3 2 2 2 7 8 3 6 8 9 10 10 9 7 6 4 3 3 4 5 4 4 4 4 3 3 3 2 2 2 2 2 1 2 2 1 2 2 2 3 3 3 3
3 4 2 2 3 10 6 4 5 6 8 9 12 12 10 6 4 6 5 5 6 5 4 4 3 3 2 2 2 2 2 2 2 2 2 2 2 2 3 3 4 4 4 4
1 2 3 3 4 9 6 2 2 2 7 7 8 10 8 2 3 6 3 3 4 3 2 2 2 2 2 2 2 3 3 2 3 3 3 2 2 2 3 4 4 4 4 5
4 4 5 6 7 11 5 5 5 4 8 3 6 7 6 6 8 4 1 1 2 2 2 2 2 2 3 2 3 3 3 4 4 3 2 2 2 3 4 4 4 4 4 5
11 9 8 7 8 14 6 9 10 10 3 2 3 5 5 6 5 3 3 3 3 2 2 3 3 3 2 2 3 4 5 4 2 1 1 2 3 3 3 3 4 4 4 5
11 12 9 13 13 6 11 10 8 3 4 4 4 4 5 5 6 5 5 4 4 4 3 3 3 3 2 2 3 5 4 2 1 1 2 3 3 3 3 4 4 4 3 4
7 5 5 8 11 8 8 8 7 6 7 6 5 5 5 7 7 7 6 5 5 4 4 3 3 4 4 3 3 4 3 1 2 3 3 3 3 3 3 3 3 3 4 4
9 9 7 10 9 6 9 12 13 10 9 8 8 7 8 8 8 8 7 6 5 5 4 4 5 5 5 4 3 3 2 2 3 3 3 3 3 3 3 4 4 4 4 5
10 11 11 12 9 9 9 8 9 10 11 11 10 9 8 8 9 8 7 6 5 5 4 4 5 6 5 4 4 3 3 3 3 3 3 3 3 3 3 3 4 7 8 10
Wind_Direction
27 54 42 12 349 342 29 105 116 75 50 351 257 253 233 202 206 209 216 214 191 174 153 136 115 119 128 125 114 100 82 54 39 34 36 50 3 9 17 23 26 12 9 3
65 45 2 341 9 25 48 64 28 53 83 332 278 266 240 208 206 204 210 217 208 195 159 132 120 116 112 123 122 124 114 90 50 26 245 216 252 233 45 352 354 352 356 357
58 28 348 8 24 31 35 32 322 298 305 225 246 276 199 179 191 198 211 221 219 205 171 144 117 116 106 100 103 101 134 137 113 23 18 8 13 7 9 347 341 344 347 348
49 15 9 29 21 357 358 26 300 275 290 265 231 286 230 180 190 207 208 214 224 225 172 142 125 111 98 112 121 122 121 158 177 141 47 29 29 327 301 313 330 345 0 1
50 13 10 18 2 343 358 322 283 276 275 291 235 236 260 165 204 217 207 204 212 199 172 154 148 151 133 115 118 114 88 58 55 118 139 285 293 289 309 326 322 315 317 336
83 44 21 356 342 338 302 272 242 253 250 264 223 206 258 198 203 189 188 191 196 184 152 137 142 132 121 110 105 109 115 84 56 52 32 318 309 325 339 344 341 334 330 335
73 86 70 335 324 348 320 318 20 290 238 247 140 205 249 191 127 139 158 180 179 162 150 159 158 138 125 110 112 117 115 85 58 55 32 360 330 322 321 324 330 330 331 334
23 347 78 16 357 325 311 334 56 264 277 304 162 236 245 134 107 89 97 110 115 143 154 158 163 156 143 143 148 131 130 109 73 58 22 15 4 345 332 333 327 317 312 319
30 342 48 25 345 336 331 54 339 356 352 290 254 248 257 132 129 133 125 117 141 173 174 174 158 149 138 137 147 136 141 107 79 63 37 16 19 356 334 330 329 326 328 329
0 204 266 244 238 352 349 346 88 160 282 284 266 244 236 191 203 194 187 192 191 178 173 168 156 153 147 150 150 132 121 113 91 56 354 348 23 4 352 350 349 347 343 340
344 143 246 207 205 204 152 182 239 226 226 239 278 270 251 167 170 171 188 185 167 175 195 188 177 170 157 141 147 152 127 92 75 116 282 314 314 347 7 349 339 339 343 344
336 351 245 210 92 4 244 214 182 187 244 237 263 274 297 136 144 152 178 193 183 198 210 206 195 175 164 168 168 186 183 144 268 269 239 262 298 324 330 316 322 337 338 339
10 107 343 300 312 318 254 241 231 212 202 214 216 260 217 135 176 193 201 215 218 217 221 217 201 192 187 183 177 195 211 227 292 357 336 310 298 290 283 303 329 335 332 334
10 182 200 220 246 192 233 231 216 190 206 228 227 250 267 252 252 254 240 236 235 221 214 220 221 223 203 193 192 198 220 236 221 194 255 272 280 283 288 306 317 319 321 319
105 219 244 270 284 278 254 242 214 212 218 224 239 248 263 264 254 257 252 245 238 230 225 222 222 228 219 205 198 199 216 232 213 211 241 259 281 306 308 308 302 302 300 296
164 210 301 284 266 271 276 258 235 231 233 241 258 269 264 273 274 267 256 241 238 238 235 229 225 225 224 213 209 208 215 225 202 212 240 258 257 274 280 286 299 305 299 296
165 153 179 271 325 340 274 234 212 213 215 213 233 244 259 265 258 255 254 242 244 248 244 235 227 222 216 212 208 209 212 202 201 221 245 257 256 268 278 292 297 292 292 298
155 156 189 286 4 255 245 180 191 214 238 225 238 251 257 259 267 269 255 248 254 253 245 236 226 222 214 201 197 203 196 193 204 230 260 268 262 274 287 292 288 289 292 290
168 165 185 199 252 271 271 217 187 205 256 229 232 249 260 272 306 285 255 229 237 242 237 228 215 210 199 192 190 186 199 198 205 235 254 258 254 268 277 280 283 287 292 290
202 175 198 198 229 248 246 172 121 111 273 241 215 234 246 236 249 261 246 219 229 232 228 221 201 189 195 201 176 187 212 212 228 240 251 257 257 263 269 274 281 284 283 283
167 192 211 214 235 258 239 153 129 178 247 233 201 217 219 209 223 239 218 214 219 215 218 204 188 195 210 198 176 201 216 230 238 243 251 262 265 267 270 277 282 286 286 291
176 179 195 189 218 249 185 153 190 218 230 219 216 214 217 231 243 246 243 238 233 232 222 202 201 216 215 184 182 210 232 241 242 237 251 264 271 273 278 279 284 288 288 288
202 195 188 198 217 231 174 198 216 224 235 234 228 233 224 240 249 247 244 240 237 233 230 213 209 223 230 196 187 218 239 239 225 233 252 263 271 273 276 272 277 283 279 277
224 213 219 241 250 241 224 237 242 235 237 247 245 245 234 241 248 251 251 246 242 238 233 221 211 224 237 221 210 226 240 217 206 235 253 261 266 275 277 274 269 268 269 271
202 180 210 245 257 272 248 233 238 242 243 249 250 242 238 242 250 249 252 248 243 243 236 215 214 224 234 229 230 231 219 196 218 239 251 261 262 267 268 264 261 267 261 265
192 188 196 229 212 210 233 224 223 228 236 238 242 249 243 233 244 248 248 245 238 235 228 222 223 228 232 225 230 230 209 195 211 238 246 250 257 261 263 271 284 279 278 285